TimePDT,TemperatureF,Dew PointF,Humidity,Sea Level PressureIn,VisibilityMPH,Wind Direction,Wind SpeedMPH,Gust SpeedMPH,PrecipitationIn,Events,Conditions,WindDirDegrees,DateUTC
12:53 AM,23.0,3.0,42,30.21,10.0,West,5.8,-,N/A,,Clear,260,2012-10-07 07:53:00
1:53 AM,21.9,1.0,40,30.22,10.0,Calm,Calm,-,N/A,,Clear,0,2012-10-07 08:53:00
2:53 AM,21.9,1.9,42,30.20,10.0,West,5.8,-,N/A,,Clear,280,2012-10-07 09:53:00
3:53 AM,21.9,3.9,46,30.20,10.0,Calm,Calm,-,N/A,,Clear,0,2012-10-07 10:53:00
4:53 AM,26.1,5.0,41,30.19,10.0,Calm,Calm,-,N/A,,Clear,0,2012-10-07 11:53:00
5:53 AM,18.0,3.9,54,30.23,10.0,NW,4.6,-,N/A,,Clear,310,2012-10-07 12:53:00
6:53 AM,19.0,3.0,50,30.26,10.0,Calm,Calm,-,N/A,,Clear,0,2012-10-07 13:53:00
7:53 AM,25.0,3.9,41,30.26,10.0,Calm,Calm,-,N/A,,Clear,0,2012-10-07 14:53:00
8:53 AM,43.0,10.0,26,30.22,10.0,Calm,Calm,-,N/A,,Clear,0,2012-10-07 15:53:00
9:53 AM,55.0,12.0,18,30.21,10.0,ENE,11.5,-,N/A,,Clear,60,2012-10-07 16:53:00
10:53 AM,57.0,10.9,16,30.19,10.0,ENE,10.4,-,N/A,,Clear,60,2012-10-07 17:53:00
11:53 AM,59.0,10.9,15,30.19,10.0,NE,10.4,-,N/A,,Clear,50,2012-10-07 18:53:00
12:53 PM,62.1,10.0,13,30.16,10.0,NE,8.1,-,N/A,,Clear,40,2012-10-07 19:53:00
1:53 PM,64.9,9.0,11,30.13,10.0,NE,6.9,-,N/A,,Clear,50,2012-10-07 20:53:00
2:53 PM,64.9,9.0,11,30.10,10.0,ENE,8.1,-,N/A,,Clear,70,2012-10-07 21:53:00
3:53 PM,66.0,9.0,11,30.08,10.0,ENE,6.9,-,N/A,,Clear,70,2012-10-07 22:53:00
4:53 PM,64.9,9.0,11,30.06,10.0,ENE,5.8,-,N/A,,Clear,60,2012-10-07 23:53:00
5:53 PM,60.1,10.0,14,30.09,10.0,NE,5.8,-,N/A,,Clear,50,2012-10-08 00:53:00
6:53 PM,45.0,10.0,24,30.12,10.0,NE,8.1,-,N/A,,Clear,40,2012-10-08 01:53:00
7:53 PM,37.9,6.1,27,30.12,10.0,North,5.8,-,N/A,,Clear,10,2012-10-08 02:53:00
8:53 PM,30.9,7.0,37,30.10,10.0,WSW,3.5,-,N/A,,Clear,240,2012-10-08 03:53:00
9:53 PM,35.1,9.0,34,30.06,10.0,West,9.2,-,N/A,,Clear,270,2012-10-08 04:53:00
10:53 PM,30.0,7.0,38,30.06,10.0,Calm,Calm,-,N/A,,Clear,0,2012-10-08 05:53:00
11:53 PM,30.9,8.1,38,30.06,10.0,WNW,5.8,-,N/A,,Clear,300,2012-10-08 06:53:00